Year,Month,Day,Hour,Minute,Value (Times are PST for temperature in C)
2006,05,16,00,00,14.30
2006,05,16,00,01,14.30
2006,05,16,00,02,14.20
2006,05,16,00,03,14.20
2006,05,16,00,04,14.20
2006,05,16,00,05,14.20
2006,05,16,00,06,14.20
2006,05,16,00,07,14.20
2006,05,16,00,08,14.20
2006,05,16,00,09,14.20
2006,05,16,00,10,14.20
2006,05,16,00,11,14.20
2006,05,16,00,12,14.20
2006,05,16,00,13,14.20
2006,05,16,00,14,14.20
2006,05,16,00,15,14.20
2006,05,16,00,16,14.20
2006,05,16,00,17,14.20
2006,05,16,00,18,14.20
2006,05,16,00,19,14.20
2006,05,16,00,20,14.20
2006,05,16,00,21,14.10
2006,05,16,00,22,14.10
2006,05,16,00,23,14.10
2006,05,16,00,24,14.10
2006,05,16,00,25,14.10
2006,05,16,00,26,14.00
2006,05,16,00,27,14.00
2006,05,16,00,28,14.00
2006,05,16,00,29,14.00
2006,05,16,00,30,14.00
2006,05,16,00,31,14.00
2006,05,16,00,32,14.00
2006,05,16,00,33,13.90
2006,05,16,00,34,13.90
2006,05,16,00,35,13.90
2006,05,16,00,36,13.90
2006,05,16,00,37,13.90
2006,05,16,00,38,13.90
2006,05,16,00,39,13.90
2006,05,16,00,40,13.90
2006,05,16,00,41,13.90
2006,05,16,00,42,13.90
2006,05,16,00,43,13.90
2006,05,16,00,44,13.90
2006,05,16,00,45,13.90
2006,05,16,00,46,13.90
2006,05,16,00,47,13.90
2006,05,16,00,48,13.90
2006,05,16,00,49,13.80
2006,05,16,00,50,13.80
2006,05,16,00,51,13.80
2006,05,16,00,52,13.70
2006,05,16,00,53,13.70
2006,05,16,00,54,13.70
2006,05,16,00,55,13.70
2006,05,16,00,56,13.70
2006,05,16,00,57,13.60
2006,05,16,00,58,13.60
2006,05,16,00,59,13.60
2006,05,16,01,00,13.60
2006,05,16,01,01,13.60
2006,05,16,01,02,13.60
2006,05,16,01,03,13.50
2006,05,16,01,04,13.50
2006,05,16,01,05,13.50
2006,05,16,01,06,13.50
2006,05,16,01,07,13.50
2006,05,16,01,08,13.50
2006,05,16,01,09,13.50
2006,05,16,01,10,13.50
2006,05,16,01,11,13.50
2006,05,16,01,12,13.50
2006,05,16,01,13,13.50
2006,05,16,01,14,13.50
2006,05,16,01,15,13.40
2006,05,16,01,16,13.40
2006,05,16,01,17,13.40
2006,05,16,01,18,13.40
2006,05,16,01,19,13.40
2006,05,16,01,20,13.40
2006,05,16,01,21,13.40
2006,05,16,01,22,13.40
2006,05,16,01,23,13.40
2006,05,16,01,24,13.30
2006,05,16,01,25,13.30
2006,05,16,01,26,13.30
2006,05,16,01,27,13.30
2006,05,16,01,28,13.30
2006,05,16,01,29,13.30
2006,05,16,01,30,13.30
2006,05,16,01,31,13.30
2006,05,16,01,32,13.30
2006,05,16,01,33,13.30
2006,05,16,01,34,13.30
2006,05,16,01,35,13.30
2006,05,16,01,36,13.30
2006,05,16,01,37,13.30
2006,05,16,01,38,13.30
2006,05,16,01,39,13.30
2006,05,16,01,40,13.30
2006,05,16,01,41,13.30
2006,05,16,01,42,13.20
2006,05,16,01,43,13.20
2006,05,16,01,44,13.20
2006,05,16,01,45,13.20
2006,05,16,01,46,13.10
2006,05,16,01,47,13.10
2006,05,16,01,48,13.10
2006,05,16,01,49,13.10
2006,05,16,01,50,13.10
2006,05,16,01,51,13.10
2006,05,16,01,52,13.10
2006,05,16,01,53,13.10
2006,05,16,01,54,13.10
2006,05,16,01,55,13.00
2006,05,16,01,56,13.00
2006,05,16,01,57,13.00
2006,05,16,01,58,13.00
2006,05,16,01,59,13.00
2006,05,16,02,00,13.00
2006,05,16,02,01,13.00
2006,05,16,02,02,13.00
2006,05,16,02,03,13.00
2006,05,16,02,04,12.90
2006,05,16,02,05,12.90
2006,05,16,02,06,12.90
2006,05,16,02,07,12.90
2006,05,16,02,08,12.90
2006,05,16,02,09,12.90
2006,05,16,02,10,12.90
2006,05,16,02,11,12.90
2006,05,16,02,12,12.80
2006,05,16,02,13,12.80
2006,05,16,02,14,12.80
2006,05,16,02,15,12.80
2006,05,16,02,16,12.80
2006,05,16,02,17,12.80
2006,05,16,02,18,12.70
2006,05,16,02,19,12.70
2006,05,16,02,20,12.70
2006,05,16,02,21,12.60
2006,05,16,02,22,12.60
2006,05,16,02,23,12.60
2006,05,16,02,24,12.60
2006,05,16,02,25,12.60
2006,05,16,02,26,12.60
2006,05,16,02,27,12.60
2006,05,16,02,28,12.60
2006,05,16,02,29,12.60
2006,05,16,02,30,12.60
2006,05,16,02,31,12.60
2006,05,16,02,32,12.60
2006,05,16,02,33,12.60
2006,05,16,02,34,12.60
2006,05,16,02,35,12.60
2006,05,16,02,36,12.60
2006,05,16,02,37,12.60
2006,05,16,02,38,12.60
2006,05,16,02,39,12.50
2006,05,16,02,40,12.50
2006,05,16,02,41,12.50
2006,05,16,02,42,12.50
2006,05,16,02,43,12.50
2006,05,16,02,44,12.50
2006,05,16,02,45,12.40
2006,05,16,02,46,12.40
2006,05,16,02,47,12.40
2006,05,16,02,48,12.40
2006,05,16,02,49,12.40
2006,05,16,02,50,12.40
2006,05,16,02,51,12.40
2006,05,16,02,52,12.40
2006,05,16,02,53,12.40
2006,05,16,02,54,12.40
2006,05,16,02,55,12.40
2006,05,16,02,56,12.40
2006,05,16,02,57,12.40
2006,05,16,02,58,12.40
2006,05,16,02,59,12.40
2006,05,16,03,00,12.40
2006,05,16,03,01,12.30
2006,05,16,03,02,12.30
2006,05,16,03,03,12.30
2006,05,16,03,04,12.30
2006,05,16,03,05,12.30
2006,05,16,03,06,12.30
2006,05,16,03,07,12.30
2006,05,16,03,08,12.30
2006,05,16,03,09,12.30
2006,05,16,03,10,12.30
2006,05,16,03,11,12.30
2006,05,16,03,12,12.30
2006,05,16,03,13,12.30
2006,05,16,03,14,12.30
2006,05,16,03,15,12.30
2006,05,16,03,16,12.40
2006,05,16,03,17,12.40
2006,05,16,03,18,12.40
2006,05,16,03,19,12.40
2006,05,16,03,20,12.40
2006,05,16,03,21,12.40
2006,05,16,03,22,12.40
2006,05,16,03,23,12.30
2006,05,16,03,24,12.30
2006,05,16,03,25,12.30
2006,05,16,03,26,12.30
2006,05,16,03,27,12.30
2006,05,16,03,28,12.30
2006,05,16,03,29,12.30
2006,05,16,03,30,12.30
2006,05,16,03,31,12.30
2006,05,16,03,32,12.30
2006,05,16,03,33,12.20
2006,05,16,03,34,12.20
2006,05,16,03,35,12.20
2006,05,16,03,36,12.20
2006,05,16,03,37,12.20
2006,05,16,03,38,12.10
2006,05,16,03,39,12.10
2006,05,16,03,40,12.20
2006,05,16,03,41,12.20
2006,05,16,03,42,12.20
2006,05,16,03,43,12.20
2006,05,16,03,44,12.10
2006,05,16,03,45,12.10
2006,05,16,03,46,12.10
2006,05,16,03,47,12.10
2006,05,16,03,48,12.10
2006,05,16,03,49,12.10
2006,05,16,03,50,12.10
2006,05,16,03,51,12.10
2006,05,16,03,52,12.10
2006,05,16,03,53,12.10
2006,05,16,03,54,12.10
2006,05,16,03,55,12.10
2006,05,16,03,56,12.10
2006,05,16,03,57,12.10
2006,05,16,03,58,12.10
2006,05,16,03,59,12.10
2006,05,16,04,00,12.10
2006,05,16,04,01,12.10
2006,05,16,04,02,12.20
2006,05,16,04,03,12.20
2006,05,16,04,04,12.10
2006,05,16,04,05,12.10
2006,05,16,04,06,12.10
2006,05,16,04,07,12.10
2006,05,16,04,08,12.10
2006,05,16,04,09,12.10
2006,05,16,04,10,12.10
2006,05,16,04,11,12.10
2006,05,16,04,12,12.10
2006,05,16,04,13,12.10
2006,05,16,04,14,12.00
2006,05,16,04,15,12.00
2006,05,16,04,16,12.00
2006,05,16,04,17,12.00
2006,05,16,04,18,12.00
2006,05,16,04,19,12.00
2006,05,16,04,20,12.00
2006,05,16,04,21,12.00
2006,05,16,04,22,12.00
2006,05,16,04,23,11.90
2006,05,16,04,24,11.90
2006,05,16,04,25,11.90
2006,05,16,04,26,11.90
2006,05,16,04,27,11.80
2006,05,16,04,28,11.80
2006,05,16,04,29,11.80
2006,05,16,04,30,11.80
2006,05,16,04,31,11.80
2006,05,16,04,32,11.80
2006,05,16,04,33,11.70
2006,05,16,04,34,11.70
2006,05,16,04,35,11.70
2006,05,16,04,36,11.60
2006,05,16,04,37,11.60
2006,05,16,04,38,11.60
2006,05,16,04,39,11.60
2006,05,16,04,40,11.60
2006,05,16,04,41,11.60
2006,05,16,04,42,11.50
2006,05,16,04,43,11.40
2006,05,16,04,44,11.40
2006,05,16,04,45,11.40
2006,05,16,04,46,11.40
2006,05,16,04,47,11.40
2006,05,16,04,48,11.40
2006,05,16,04,49,11.40
2006,05,16,04,50,11.40
2006,05,16,04,51,11.60
2006,05,16,04,52,11.60
2006,05,16,04,53,11.60
2006,05,16,04,54,11.60
2006,05,16,04,55,11.60
2006,05,16,04,56,11.60
2006,05,16,04,57,11.50
2006,05,16,04,58,11.40
2006,05,16,04,59,11.40
2006,05,16,05,00,11.40
2006,05,16,05,01,11.40
2006,05,16,05,02,11.40
2006,05,16,05,03,11.40
2006,05,16,05,04,11.30
2006,05,16,05,05,11.20
2006,05,16,05,06,11.20
2006,05,16,05,07,11.10
2006,05,16,05,08,11.10
2006,05,16,05,09,11.10
2006,05,16,05,10,11.10
2006,05,16,05,11,11.10
2006,05,16,05,12,11.10
2006,05,16,05,13,11.10
2006,05,16,05,14,11.10
2006,05,16,05,15,11.10
2006,05,16,05,16,11.10
2006,05,16,05,17,11.10
2006,05,16,05,18,11.10
2006,05,16,05,19,11.10
2006,05,16,05,20,11.10
2006,05,16,05,21,11.10
2006,05,16,05,22,11.10
2006,05,16,05,23,11.10
2006,05,16,05,24,11.10
2006,05,16,05,25,11.10
2006,05,16,05,26,11.10
2006,05,16,05,27,11.10
2006,05,16,05,28,11.10
2006,05,16,05,29,11.10
2006,05,16,05,30,11.10
2006,05,16,05,31,11.10
2006,05,16,05,32,11.10
2006,05,16,05,33,11.10
2006,05,16,05,34,11.10
2006,05,16,05,35,11.00
2006,05,16,05,36,10.90
2006,05,16,05,37,10.90
2006,05,16,05,38,10.90
2006,05,16,05,39,10.90
2006,05,16,05,40,10.90
2006,05,16,05,41,10.90
2006,05,16,05,42,10.90
2006,05,16,05,43,10.90
2006,05,16,05,44,10.90
2006,05,16,05,45,10.90
2006,05,16,05,46,10.90
2006,05,16,05,47,10.90
2006,05,16,05,48,10.80
2006,05,16,05,49,10.80
2006,05,16,05,50,10.80
2006,05,16,05,51,10.80
2006,05,16,05,52,10.80
2006,05,16,05,53,10.80
2006,05,16,05,54,10.80
2006,05,16,05,55,10.80
2006,05,16,05,56,10.70
2006,05,16,05,57,10.70
2006,05,16,05,58,10.70
2006,05,16,05,59,10.70
2006,05,16,06,00,10.70
2006,05,16,06,01,10.70
2006,05,16,06,02,10.70
2006,05,16,06,03,10.70
2006,05,16,06,04,10.70
2006,05,16,06,05,10.70
2006,05,16,06,06,10.80
2006,05,16,06,07,10.80
2006,05,16,06,08,10.80
2006,05,16,06,09,10.90
2006,05,16,06,10,11.00
2006,05,16,06,11,11.10
2006,05,16,06,12,11.10
2006,05,16,06,13,11.20
2006,05,16,06,14,11.20
2006,05,16,06,15,11.30
2006,05,16,06,16,11.30
2006,05,16,06,17,11.30
2006,05,16,06,18,11.30
2006,05,16,06,19,11.40
2006,05,16,06,20,11.40
2006,05,16,06,21,11.40
2006,05,16,06,22,11.40
2006,05,16,06,23,11.40
2006,05,16,06,24,11.40
2006,05,16,06,25,11.40
2006,05,16,06,26,11.40
2006,05,16,06,27,11.40
2006,05,16,06,28,11.40
2006,05,16,06,29,11.40
2006,05,16,06,30,11.50
2006,05,16,06,31,11.60
2006,05,16,06,32,11.60
2006,05,16,06,33,11.60
2006,05,16,06,34,11.60
2006,05,16,06,35,11.60
2006,05,16,06,36,11.60
2006,05,16,06,37,11.60
2006,05,16,06,38,11.70
2006,05,16,06,39,11.70
2006,05,16,06,40,11.80
2006,05,16,06,41,11.80
2006,05,16,06,42,11.80
2006,05,16,06,43,11.90
2006,05,16,06,44,11.90
2006,05,16,06,45,11.90
2006,05,16,06,46,12.00
2006,05,16,06,47,12.00
2006,05,16,06,48,12.10
2006,05,16,06,49,12.20
2006,05,16,06,50,12.20
2006,05,16,06,51,12.20
2006,05,16,06,52,12.30
2006,05,16,06,53,12.30
2006,05,16,06,54,12.40
2006,05,16,06,55,12.50
2006,05,16,06,56,12.60
2006,05,16,06,57,12.60
2006,05,16,06,58,12.60
2006,05,16,06,59,12.70
2006,05,16,07,00,12.70
2006,05,16,07,01,12.70
2006,05,16,07,02,12.80
2006,05,16,07,03,12.80
2006,05,16,07,04,12.90
2006,05,16,07,05,13.00
2006,05,16,07,06,13.10
2006,05,16,07,07,13.20
2006,05,16,07,08,13.20
2006,05,16,07,09,13.30
2006,05,16,07,10,13.40
2006,05,16,07,11,13.50
2006,05,16,07,12,13.60
2006,05,16,07,13,13.60
2006,05,16,07,14,13.60
2006,05,16,07,15,13.70
2006,05,16,07,16,13.70
2006,05,16,07,17,13.70
2006,05,16,07,18,13.80
2006,05,16,07,19,13.90
2006,05,16,07,20,14.00
2006,05,16,07,21,14.00
2006,05,16,07,22,14.10
2006,05,16,07,23,14.10
2006,05,16,07,24,14.20
2006,05,16,07,25,14.20
2006,05,16,07,26,14.20
2006,05,16,07,27,14.20
2006,05,16,07,28,14.30
2006,05,16,07,29,14.40
2006,05,16,07,30,14.50
2006,05,16,07,31,14.50
2006,05,16,07,32,14.70
2006,05,16,07,33,14.90
2006,05,16,07,34,15.10
2006,05,16,07,35,15.30
2006,05,16,07,36,15.40
2006,05,16,07,37,15.40
2006,05,16,07,38,15.50
2006,05,16,07,39,15.50
2006,05,16,07,40,15.50
2006,05,16,07,41,15.50
2006,05,16,07,42,15.50
2006,05,16,07,43,15.50
2006,05,16,07,44,15.50
2006,05,16,07,45,15.50
2006,05,16,07,46,15.60
2006,05,16,07,47,15.60
2006,05,16,07,48,15.70
2006,05,16,07,49,15.80
2006,05,16,07,50,15.80
2006,05,16,07,51,15.80
2006,05,16,07,52,15.80
2006,05,16,07,53,15.90
2006,05,16,07,54,15.90
2006,05,16,07,55,16.00
2006,05,16,07,56,16.10
2006,05,16,07,57,16.10
2006,05,16,07,58,16.10
2006,05,16,07,59,16.10
2006,05,16,08,00,16.20
2006,05,16,08,01,16.20
2006,05,16,08,02,16.30
2006,05,16,08,03,16.30
2006,05,16,08,04,16.30
2006,05,16,08,05,16.40
2006,05,16,08,06,16.50
2006,05,16,08,07,16.60
2006,05,16,08,08,16.70
2006,05,16,08,09,16.70
2006,05,16,08,10,16.80
2006,05,16,08,11,16.80
2006,05,16,08,12,16.90
2006,05,16,08,13,17.00
2006,05,16,08,14,17.00
2006,05,16,08,15,17.10
2006,05,16,08,16,17.30
2006,05,16,08,17,17.40
2006,05,16,08,18,17.50
2006,05,16,08,19,17.60
2006,05,16,08,20,17.60
2006,05,16,08,21,17.70
2006,05,16,08,22,17.80
2006,05,16,08,23,17.90
2006,05,16,08,24,18.00
2006,05,16,08,25,18.20
2006,05,16,08,26,18.40
2006,05,16,08,27,18.50
2006,05,16,08,28,18.60
2006,05,16,08,29,18.70
2006,05,16,08,30,18.80
2006,05,16,08,31,18.80
2006,05,16,08,32,18.70
2006,05,16,08,33,18.60
2006,05,16,08,34,18.50
2006,05,16,08,35,18.50
2006,05,16,08,36,18.40
2006,05,16,08,37,18.40
2006,05,16,08,38,18.40
2006,05,16,08,39,18.40
2006,05,16,08,40,18.40
2006,05,16,08,41,18.50
2006,05,16,08,42,18.50
2006,05,16,08,43,18.60
2006,05,16,08,44,18.80
2006,05,16,08,45,18.90
2006,05,16,08,46,18.90
2006,05,16,08,47,18.90
2006,05,16,08,48,19.00
2006,05,16,08,49,19.10
2006,05,16,08,50,19.10
2006,05,16,08,51,19.20
2006,05,16,08,52,19.40
2006,05,16,08,53,19.40
2006,05,16,08,54,19.40
2006,05,16,08,55,19.50
2006,05,16,08,56,19.60
2006,05,16,08,57,19.60
2006,05,16,08,58,19.70
2006,05,16,08,59,19.90
2006,05,16,09,00,19.90
2006,05,16,09,01,19.90
2006,05,16,09,02,19.90
2006,05,16,09,03,19.90
2006,05,16,09,04,19.90
2006,05,16,09,05,20.00
2006,05,16,09,06,20.10
2006,05,16,09,07,20.20
2006,05,16,09,08,20.30
2006,05,16,09,09,20.40
2006,05,16,09,10,20.50
2006,05,16,09,11,20.70
2006,05,16,09,12,20.70
2006,05,16,09,13,20.80
2006,05,16,09,14,20.80
2006,05,16,09,15,20.90
2006,05,16,09,16,20.90
2006,05,16,09,17,20.90
2006,05,16,09,18,20.90
2006,05,16,09,19,20.90
2006,05,16,09,20,20.80
2006,05,16,09,21,20.90
2006,05,16,09,22,20.90
2006,05,16,09,23,20.90
2006,05,16,09,24,21.00
2006,05,16,09,25,21.10
2006,05,16,09,26,21.20
2006,05,16,09,27,21.20
2006,05,16,09,28,21.20
2006,05,16,09,29,21.20
2006,05,16,09,30,21.30
2006,05,16,09,31,21.40
2006,05,16,09,32,21.50
2006,05,16,09,33,21.60
2006,05,16,09,34,21.70
2006,05,16,09,35,21.80
2006,05,16,09,36,21.80
2006,05,16,09,37,21.60
2006,05,16,09,38,21.50
2006,05,16,09,39,21.40
2006,05,16,09,40,21.40
2006,05,16,09,41,21.40
2006,05,16,09,42,21.50
2006,05,16,09,43,21.60
2006,05,16,09,44,21.70
2006,05,16,09,45,21.80
2006,05,16,09,46,21.80
2006,05,16,09,47,21.70
2006,05,16,09,48,21.60
2006,05,16,09,49,21.50
2006,05,16,09,50,21.30
2006,05,16,09,51,21.20
2006,05,16,09,52,21.00
2006,05,16,09,53,21.00
2006,05,16,09,54,21.00
2006,05,16,09,55,21.10
2006,05,16,09,56,21.10
2006,05,16,09,57,21.30
2006,05,16,09,58,21.40
2006,05,16,09,59,21.40
2006,05,16,10,00,21.40
2006,05,16,10,01,21.30
2006,05,16,10,02,21.30
2006,05,16,10,03,21.30
2006,05,16,10,04,21.30
2006,05,16,10,05,21.30
2006,05,16,10,06,21.40
2006,05,16,10,07,21.50
2006,05,16,10,08,21.60
2006,05,16,10,09,21.80
2006,05,16,10,10,21.90
2006,05,16,10,11,21.80
2006,05,16,10,12,21.70
2006,05,16,10,13,21.80
2006,05,16,10,14,21.80
2006,05,16,10,15,21.80
2006,05,16,10,16,21.80
2006,05,16,10,17,21.80
2006,05,16,10,18,21.90
2006,05,16,10,19,21.90
2006,05,16,10,20,22.10
2006,05,16,10,21,22.20
2006,05,16,10,22,22.40
2006,05,16,10,23,22.60
2006,05,16,10,24,22.70
2006,05,16,10,25,22.80
2006,05,16,10,26,22.90
2006,05,16,10,27,23.10
2006,05,16,10,28,23.30
2006,05,16,10,29,23.50
2006,05,16,10,30,23.60
2006,05,16,10,31,23.70
2006,05,16,10,32,23.80
2006,05,16,10,33,23.80
2006,05,16,10,34,23.80
2006,05,16,10,35,23.80
2006,05,16,10,36,23.80
2006,05,16,10,37,23.80
2006,05,16,10,38,23.90
2006,05,16,10,39,23.90
2006,05,16,10,40,24.00
2006,05,16,10,41,24.10
2006,05,16,10,42,24.10
2006,05,16,10,43,24.00
2006,05,16,10,44,24.00
2006,05,16,10,45,23.90
2006,05,16,10,46,23.90
2006,05,16,10,47,23.90
2006,05,16,10,48,23.90
2006,05,16,10,49,23.90
2006,05,16,10,50,24.10
2006,05,16,10,51,24.10
2006,05,16,10,52,24.10
2006,05,16,10,53,24.10
2006,05,16,10,54,24.10
2006,05,16,10,55,24.10
2006,05,16,10,56,24.10
2006,05,16,10,57,24.10
2006,05,16,10,58,24.10
2006,05,16,10,59,24.10
2006,05,16,11,00,24.10
2006,05,16,11,01,24.10
2006,05,16,11,02,24.00
2006,05,16,11,03,24.10
2006,05,16,11,04,24.10
2006,05,16,11,05,24.10
2006,05,16,11,06,24.10
2006,05,16,11,07,24.10
2006,05,16,11,08,24.20
2006,05,16,11,09,24.40
2006,05,16,11,10,24.50
2006,05,16,11,11,24.60
2006,05,16,11,12,24.70
2006,05,16,11,13,24.80
2006,05,16,11,14,24.90
2006,05,16,11,15,24.90
2006,05,16,11,16,25.00
2006,05,16,11,17,25.00
2006,05,16,11,18,25.10
2006,05,16,11,19,25.10
2006,05,16,11,20,25.00
2006,05,16,11,21,25.00
2006,05,16,11,22,25.00
2006,05,16,11,23,25.00
2006,05,16,11,24,25.00
2006,05,16,11,25,25.10
2006,05,16,11,26,25.10
2006,05,16,11,27,25.10
2006,05,16,11,28,25.10
2006,05,16,11,29,25.10
2006,05,16,11,30,25.00
2006,05,16,11,31,25.00
2006,05,16,11,32,25.00
2006,05,16,11,33,25.00
2006,05,16,11,34,25.00
2006,05,16,11,35,25.10
2006,05,16,11,36,25.10
2006,05,16,11,37,25.00
2006,05,16,11,38,25.00
2006,05,16,11,39,25.00
2006,05,16,11,40,25.10
2006,05,16,11,41,25.10
2006,05,16,11,42,25.00
2006,05,16,11,43,25.10
2006,05,16,11,44,25.20
2006,05,16,11,45,25.30
2006,05,16,11,46,25.40
2006,05,16,11,47,25.40
2006,05,16,11,48,25.40
2006,05,16,11,49,25.40
2006,05,16,11,50,25.40
2006,05,16,11,51,25.40
2006,05,16,11,52,25.40
2006,05,16,11,53,25.40
2006,05,16,11,54,25.40
2006,05,16,11,55,25.30
2006,05,16,11,56,25.20
2006,05,16,11,57,25.20
2006,05,16,11,58,25.20
2006,05,16,11,59,25.20
2006,05,16,12,00,25.10
2006,05,16,12,01,25.10
2006,05,16,12,02,25.00
2006,05,16,12,03,25.00
2006,05,16,12,04,24.90
2006,05,16,12,05,24.90
2006,05,16,12,06,25.00
2006,05,16,12,07,25.00
2006,05,16,12,08,25.10
2006,05,16,12,09,25.10
2006,05,16,12,10,25.20
2006,05,16,12,11,25.10
2006,05,16,12,12,25.10
2006,05,16,12,13,25.10
2006,05,16,12,14,25.00
2006,05,16,12,15,25.00
2006,05,16,12,16,25.00
2006,05,16,12,17,25.00
2006,05,16,12,18,25.10
2006,05,16,12,19,25.10
2006,05,16,12,20,25.10
2006,05,16,12,21,25.00
2006,05,16,12,22,24.90
2006,05,16,12,23,24.80
2006,05,16,12,24,24.80
2006,05,16,12,25,24.80
2006,05,16,12,26,24.80
2006,05,16,12,27,24.80
2006,05,16,12,28,24.70
2006,05,16,12,29,24.70
2006,05,16,12,30,24.70
2006,05,16,12,31,24.70
2006,05,16,12,32,24.80
2006,05,16,12,33,24.90
2006,05,16,12,34,24.90
2006,05,16,12,35,24.90
2006,05,16,12,36,24.80
2006,05,16,12,37,24.80
2006,05,16,12,38,24.80
2006,05,16,12,39,24.80
2006,05,16,12,40,24.60
2006,05,16,12,41,24.60
2006,05,16,12,42,24.60
2006,05,16,12,43,24.50
2006,05,16,12,44,24.50
2006,05,16,12,45,24.50
2006,05,16,12,46,24.50
2006,05,16,12,47,24.60
2006,05,16,12,48,24.70
2006,05,16,12,49,24.70
2006,05,16,12,50,24.80
2006,05,16,12,51,24.90
2006,05,16,12,52,25.10
2006,05,16,12,53,25.10
2006,05,16,12,54,25.00
2006,05,16,12,55,25.00
2006,05,16,12,56,24.90
2006,05,16,12,57,25.00
2006,05,16,12,58,25.00
2006,05,16,12,59,25.10
2006,05,16,13,00,25.10
2006,05,16,13,01,25.10
2006,05,16,13,02,25.00
2006,05,16,13,03,25.10
2006,05,16,13,04,25.30
2006,05,16,13,05,25.40
2006,05,16,13,06,25.40
2006,05,16,13,07,25.40
2006,05,16,13,08,25.30
2006,05,16,13,09,25.20
2006,05,16,13,10,25.20
2006,05,16,13,11,25.20
2006,05,16,13,12,25.20
2006,05,16,13,13,25.20
2006,05,16,13,14,25.30
2006,05,16,13,15,25.30
2006,05,16,13,16,25.20
2006,05,16,13,17,25.30
2006,05,16,13,18,25.30
2006,05,16,13,19,25.40
2006,05,16,13,20,25.50
2006,05,16,13,21,25.60
2006,05,16,13,22,25.60
2006,05,16,13,23,25.70
2006,05,16,13,24,25.80
2006,05,16,13,25,25.80
2006,05,16,13,26,25.80
2006,05,16,13,27,25.80
2006,05,16,13,28,25.80
2006,05,16,13,29,25.70
2006,05,16,13,30,25.60
2006,05,16,13,31,25.50
2006,05,16,13,32,25.50
2006,05,16,13,33,25.50
2006,05,16,13,34,25.50
2006,05,16,13,35,25.60
2006,05,16,13,36,25.70
2006,05,16,13,37,25.70
2006,05,16,13,38,25.80
2006,05,16,13,39,25.80
2006,05,16,13,40,25.80
2006,05,16,13,41,25.80
2006,05,16,13,42,25.80
2006,05,16,13,43,25.90
2006,05,16,13,44,25.90
2006,05,16,13,45,26.00
2006,05,16,13,46,26.10
2006,05,16,13,47,26.10
2006,05,16,13,48,26.30
2006,05,16,13,49,26.40
2006,05,16,13,50,26.40
2006,05,16,13,51,26.50
2006,05,16,13,52,26.60
2006,05,16,13,53,26.60
2006,05,16,13,54,26.60
2006,05,16,13,55,26.60
2006,05,16,13,56,26.70
2006,05,16,13,57,26.80
2006,05,16,13,58,26.90
2006,05,16,13,59,26.90
2006,05,16,14,00,26.90
2006,05,16,14,01,26.90
2006,05,16,14,02,27.00
2006,05,16,14,03,27.10
2006,05,16,14,04,27.10
2006,05,16,14,05,27.10
2006,05,16,14,06,27.00
2006,05,16,14,07,27.10
2006,05,16,14,08,27.10
2006,05,16,14,09,27.20
2006,05,16,14,10,27.10
2006,05,16,14,11,27.00
2006,05,16,14,12,26.90
2006,05,16,14,13,26.90
2006,05,16,14,14,27.00
2006,05,16,14,15,27.10
2006,05,16,14,16,27.30
2006,05,16,14,17,27.30
2006,05,16,14,18,27.30
2006,05,16,14,19,27.20
2006,05,16,14,20,27.00
2006,05,16,14,21,26.90
2006,05,16,14,22,26.90
2006,05,16,14,23,26.90
2006,05,16,14,24,27.00
2006,05,16,14,25,27.10
2006,05,16,14,26,27.20
2006,05,16,14,27,27.20
2006,05,16,14,28,27.20
2006,05,16,14,29,27.20
2006,05,16,14,30,27.20
2006,05,16,14,31,27.20
2006,05,16,14,32,27.20
2006,05,16,14,33,27.20
2006,05,16,14,34,27.20
2006,05,16,14,35,27.10
2006,05,16,14,36,27.10
2006,05,16,14,37,27.10
2006,05,16,14,38,27.20
2006,05,16,14,39,27.20
2006,05,16,14,40,27.20
2006,05,16,14,41,27.10
2006,05,16,14,42,27.10
2006,05,16,14,43,27.20
2006,05,16,14,44,27.20
2006,05,16,14,45,27.20
2006,05,16,14,46,27.30
2006,05,16,14,47,27.30
2006,05,16,14,48,27.30
2006,05,16,14,49,27.30
2006,05,16,14,50,27.30
2006,05,16,14,51,27.30
2006,05,16,14,52,27.30
2006,05,16,14,53,27.10
2006,05,16,14,54,27.00
2006,05,16,14,55,26.90
2006,05,16,14,56,27.00
2006,05,16,14,57,27.10
2006,05,16,14,58,27.10
2006,05,16,14,59,27.30
2006,05,16,15,00,27.30
2006,05,16,15,01,27.20
2006,05,16,15,02,27.20
2006,05,16,15,03,27.10
2006,05,16,15,04,27.10
2006,05,16,15,05,27.10
2006,05,16,15,06,27.20
2006,05,16,15,07,27.30
2006,05,16,15,08,27.40
2006,05,16,15,09,27.50
2006,05,16,15,10,27.60
2006,05,16,15,11,27.50
2006,05,16,15,12,27.40
2006,05,16,15,13,27.30
2006,05,16,15,14,27.30
2006,05,16,15,15,27.30
2006,05,16,15,16,27.30
2006,05,16,15,17,27.30
2006,05,16,15,18,27.30
2006,05,16,15,19,27.30
2006,05,16,15,20,27.30
2006,05,16,15,21,27.30
2006,05,16,15,22,27.30
2006,05,16,15,23,27.30
2006,05,16,15,24,27.30
2006,05,16,15,25,27.20
2006,05,16,15,26,27.20
2006,05,16,15,27,27.20
2006,05,16,15,28,27.20
2006,05,16,15,29,27.30
2006,05,16,15,30,27.30
2006,05,16,15,31,27.30
2006,05,16,15,32,27.20
2006,05,16,15,33,27.20
2006,05,16,15,34,27.20
2006,05,16,15,35,27.20
2006,05,16,15,36,27.20
2006,05,16,15,37,27.10
2006,05,16,15,38,27.10
2006,05,16,15,39,27.10
2006,05,16,15,40,27.10
2006,05,16,15,41,27.20
2006,05,16,15,42,27.20
2006,05,16,15,43,27.30
2006,05,16,15,44,27.30
2006,05,16,15,45,27.30
2006,05,16,15,46,27.30
2006,05,16,15,47,27.30
2006,05,16,15,48,27.20
2006,05,16,15,49,27.20
2006,05,16,15,50,27.10
2006,05,16,15,51,27.10
2006,05,16,15,52,27.10
2006,05,16,15,53,27.10
2006,05,16,15,54,27.10
2006,05,16,15,55,27.10
2006,05,16,15,56,27.10
2006,05,16,15,57,27.10
2006,05,16,15,58,27.10
2006,05,16,15,59,27.10
2006,05,16,16,00,27.00
2006,05,16,16,01,27.00
2006,05,16,16,02,27.10
2006,05,16,16,03,27.00
2006,05,16,16,04,26.90
2006,05,16,16,05,26.80
2006,05,16,16,06,26.70
2006,05,16,16,07,26.70
2006,05,16,16,08,26.60
2006,05,16,16,09,26.60
2006,05,16,16,10,26.60
2006,05,16,16,11,26.50
2006,05,16,16,12,26.40
2006,05,16,16,13,26.20
2006,05,16,16,14,26.20
2006,05,16,16,15,26.10
2006,05,16,16,16,26.00
2006,05,16,16,17,25.90
2006,05,16,16,18,25.80
2006,05,16,16,19,25.70
2006,05,16,16,20,25.70
2006,05,16,16,21,25.70
2006,05,16,16,22,25.70
2006,05,16,16,23,25.60
2006,05,16,16,24,25.60
2006,05,16,16,25,25.60
2006,05,16,16,26,25.60
2006,05,16,16,27,25.60
2006,05,16,16,28,25.60
2006,05,16,16,29,25.60
2006,05,16,16,30,25.60
2006,05,16,16,31,25.60
2006,05,16,16,32,25.60
2006,05,16,16,33,25.60
2006,05,16,16,34,25.70
2006,05,16,16,35,25.70
2006,05,16,16,36,25.80
2006,05,16,16,37,25.80
2006,05,16,16,38,25.80
2006,05,16,16,39,25.80
2006,05,16,16,40,25.80
2006,05,16,16,41,25.80
2006,05,16,16,42,25.80
2006,05,16,16,43,25.70
2006,05,16,16,44,25.60
2006,05,16,16,45,25.70
2006,05,16,16,46,25.60
2006,05,16,16,47,25.60
2006,05,16,16,48,25.70
2006,05,16,16,49,25.70
2006,05,16,16,50,25.70
2006,05,16,16,51,25.60
2006,05,16,16,52,25.60
2006,05,16,16,53,25.50
2006,05,16,16,54,25.50
2006,05,16,16,55,25.50
2006,05,16,16,56,25.50
2006,05,16,16,57,25.50
2006,05,16,16,58,25.50
2006,05,16,16,59,25.50
2006,05,16,17,00,25.50
2006,05,16,17,01,25.50
2006,05,16,17,02,25.40
2006,05,16,17,03,25.40
2006,05,16,17,04,25.30
2006,05,16,17,05,25.20
2006,05,16,17,06,25.10
2006,05,16,17,07,25.10
2006,05,16,17,08,25.10
2006,05,16,17,09,25.00
2006,05,16,17,10,25.00
2006,05,16,17,11,25.10
2006,05,16,17,12,25.10
2006,05,16,17,13,25.10
2006,05,16,17,14,25.20
2006,05,16,17,15,25.20
2006,05,16,17,16,25.10
2006,05,16,17,17,25.00
2006,05,16,17,18,25.00
2006,05,16,17,19,25.00